Flag for U.S.A. Weather past 2 weeks in Allentown, Pennsylvania, U.S.A.

Now
34 °F

Sleet. Fog.


Feels Like: 28 °F
Forecast: 34 / 39 °F
Wind: 7 mph from Southwest

Location: Lehigh Valley International Airport

Current Time: Mar 4, 2015 at 7:07:22 AM

Latest Report: Mar 4, 2015 at 5:51 AM


Visibility: 2 mi

Pressure: 29.82 "Hg

Humidity: 88%

Dew point: 31 °F

Location of AllentownLocation

Historic Weather in Allentown — Graph

°F

Allentown temperature yesterday

Maximum temperature yesterday: 33 °F (at 9:51 PM)
Minimum temperature yesterday: 12 °F (at 3:51 AM)
Average temperature yesterday: 24 °F

Past Weeks' High & Low Weather Summary

 TemperatureHumidityPressure
High41 °F (Feb 22, 2:51 PM)89% (Mar 3, 8:51 PM)30.84 "Hg (Mar 3, 8:51 PM)
Low-7 °F (Feb 24, 6:51 AM)26% (Feb 28, 2:51 PM)29.73 "Hg (Feb 18, 2:51 PM)
Average19 °F58%30.19 "Hg
* Reported Feb 17 5:54 AM — Mar 4 5:51 AM, Allentown, Weather by CustomWeather, © 2015

Note: Actual official high and low records may vary slightly from our data, if they occured in-between our weather recording intervals... More about our weather records

Advertising

Allentown weather history for previous 24 hours

 ConditionsComfort  
Time TempWeatherWind HumidityBarometerVisibility
5:51 AM
Wed, Mar 4
34 °FSleet. Fog.7 mph88%29.82 "Hg2 mi
4:51 AM34 °FSleet. Fog.8 mph85%29.80 "Hg4 mi
3:51 AM34 °FSleet. Fog.8 mph85%29.77 "Hg4 mi
3:04 AM34 °FSleet. Fog.6 mph87%29.75 "Hg5 mi
2:51 AM34 °FSleet. Fog.9 mph85%29.78 "Hg5 mi
1:51 AM34 °FSleet. Fog.8 mph85%29.80 "Hg6 mi
12:51 AM34 °FSleet. Overcast.6 mph85%29.82 "Hg7 mi
12:04 AM34 °FSleet. Fog.3 mph87%29.80 "Hg6 mi
11:51 PM
Tue, Mar 3
33 °FSleet. Fog.No wind88%29.83 "Hg6 mi
10:51 PM33 °FFreezing rain. Overcast.7 mph85%29.87 "Hg7 mi
9:51 PM33 °FFreezing rain. Overcast.7 mph82%29.93 "Hg7 mi
8:51 PM31 °FFreezing rain. Ice fog.5 mph89%29.95 "Hg2 mi
7:59 PM28 °FFreezing rain. Ice fog.5 mph86%29.98 "Hg3 mi
6:51 PM27 °FSleet. Ice fog.7 mph85%30.04 "Hg2 mi
6:01 PM27 °FSleet. Overcast.6 mph80%30.08 "Hg4 mi
4:51 PM26 °FOvercast.8 mph81%30.15 "Hg2 mi
4:01 PM27 °FLight freezing rain. Overcast.6 mph74%30.16 "Hg2 mi
2:51 PM25 °FLight snow. More clouds than sun.7 mph78%30.25 "Hg3 mi
2:03 PM25 °FLight snow. Mostly cloudy.5 mph80%30.25 "Hg1 mi
1:51 PM25 °FLight snow. Ice fog.5 mph78%30.30 "Hg1 mi
1:01 PM27 °FLight snow. Overcast.9 mph64%30.30 "Hg1 mi
11:51 AM27 °FOvercast.6 mph46%30.37 "Hg10 mi
10:51 AM26 °FOvercast.5 mph46%30.39 "Hg10 mi
9:51 AM25 °FSunny.No wind50%30.41 "Hg10 mi
8:51 AM22 °FSunny.No wind60%30.45 "Hg10 mi
7:51 AM18 °FSunny.No wind68%30.44 "Hg10 mi
Weather by CustomWeather, © 2015

See weather overviewHow to use our weather pages